TimeEST,TemperatureF,Dew PointF,Humidity,Sea Level PressureIn,VisibilityMPH,Wind Direction,Wind SpeedMPH,Gust SpeedMPH,PrecipitationIn,Events,Conditions,WindDirDegrees,DateUTC
12:53 AM,30.0,21.0,69,30.12,10.0,West,17.3,-,N/A,,Overcast,260,2012-11-24 05:53:00
1:53 AM,30.0,21.0,69,30.12,10.0,West,18.4,-,N/A,,Overcast,260,2012-11-24 06:53:00
2:53 AM,30.0,21.0,69,30.12,10.0,West,15.0,-,N/A,,Overcast,270,2012-11-24 07:53:00
3:12 AM,30.2,21.2,69,30.09,10.0,West,16.1,-,N/A,,Overcast,270,2012-11-24 08:12:00
3:53 AM,30.0,21.0,69,30.13,10.0,West,11.5,-,N/A,,Overcast,270,2012-11-24 08:53:00
4:53 AM,30.0,21.9,72,30.13,10.0,West,13.8,-,N/A,,Overcast,270,2012-11-24 09:53:00
5:53 AM,30.0,21.9,72,30.14,10.0,West,13.8,-,N/A,,Overcast,270,2012-11-24 10:53:00
6:06 AM,30.2,21.2,69,30.11,10.0,West,15.0,-,N/A,,Overcast,270,2012-11-24 11:06:00
6:53 AM,30.0,21.9,72,30.15,10.0,West,17.3,21.9,N/A,,Overcast,280,2012-11-24 11:53:00
7:53 AM,28.9,21.9,75,30.16,9.0,West,16.1,-,0.00,Snow,Light Snow,280,2012-11-24 12:53:00
8:53 AM,30.0,23.0,75,30.17,9.0,West,12.7,-,0.00,Snow,Light Snow,270,2012-11-24 13:53:00
9:53 AM,30.0,23.0,75,30.19,5.0,West,13.8,-,0.00,Snow,Light Snow,260,2012-11-24 14:53:00
10:53 AM,30.9,23.0,72,30.19,9.0,West,12.7,-,0.00,,Overcast,270,2012-11-24 15:53:00
11:53 AM,32.0,24.1,73,30.18,10.0,West,13.8,-,N/A,,Overcast,260,2012-11-24 16:53:00
12:53 PM,32.0,23.0,69,30.17,10.0,West,16.1,-,N/A,,Overcast,270,2012-11-24 17:53:00
1:53 PM,30.9,23.0,72,30.16,10.0,West,15.0,-,N/A,,Overcast,270,2012-11-24 18:53:00
2:13 PM,30.2,23.0,75,30.13,10.0,West,11.5,-,N/A,,Overcast,270,2012-11-24 19:13:00
2:53 PM,30.9,21.9,69,30.16,10.0,West,16.1,-,N/A,,Overcast,270,2012-11-24 19:53:00
3:53 PM,30.9,21.9,69,30.17,10.0,West,11.5,-,N/A,,Overcast,270,2012-11-24 20:53:00
4:53 PM,30.0,21.9,72,30.17,10.0,West,13.8,-,N/A,,Overcast,270,2012-11-24 21:53:00
5:18 PM,30.2,21.2,69,30.13,10.0,West,10.4,-,N/A,,Overcast,270,2012-11-24 22:18:00
5:53 PM,30.0,21.9,72,30.17,10.0,West,12.7,-,N/A,,Overcast,260,2012-11-24 22:53:00
6:48 PM,30.2,21.2,69,30.13,10.0,WSW,9.2,-,N/A,,Overcast,250,2012-11-24 23:48:00
6:53 PM,30.0,21.9,72,30.16,10.0,WSW,9.2,-,N/A,,Overcast,250,2012-11-24 23:53:00
7:53 PM,30.0,21.0,69,30.16,10.0,WSW,10.4,-,N/A,,Overcast,250,2012-11-25 00:53:00
8:53 PM,30.0,19.0,64,30.15,10.0,WSW,13.8,-,N/A,,Overcast,250,2012-11-25 01:53:00
9:53 PM,28.9,19.9,69,30.12,10.0,West,9.2,-,N/A,,Overcast,260,2012-11-25 02:53:00
10:53 PM,30.0,19.9,66,30.12,10.0,SW,9.2,-,N/A,,Overcast,230,2012-11-25 03:53:00
11:53 PM,28.9,19.0,67,30.10,10.0,SW,8.1,-,N/A,,Overcast,230,2012-11-25 04:53:00